Location: Avenches
(46.8809°N, 7.0410°E)
Time: 03:27:05
(UTC+00:00)

ISS - Pass Details

Date: 30 March 2020
Orbit: 417 x 420 km, 51.6° (Epoch: 27 May)

Event Time Altitude Azimuth Distance (km) Brightness Sun altitude
Rises 20:27:17 0° 295° (WNW) 2,367 1.4 -24.2°
Reaches altitude 10° 20:29:24 10° 292° (WNW) 1,500 0.0 -24.5°
Enters shadow 20:31:23 32° 283° (WNW) 738 -2.0 -24.7°
